RH
63 53 82 100 89 100 99 100 73 63 74 71 73 69 62 57 50 44 41 38 34 26 18 12 11 5 4 3 4 7 89 82 89 86 81 79 34 27 29 34 26 12 19 31
59 40 52 68 87 100 95 100 100 94 65 56 67 56 47 48 41 39 38 34 29 22 16 7 4 4 11 6 6 37 100 96 92 90 86 94 34 28 33 35 33 15 11 17
87 96 49 65 59 93 100 84 91 93 79 52 51 57 45 38 34 35 35 33 28 20 6 3 4 18 67 40 33 92 99 100 91 96 95 100 47 29 35 38 34 31 12 10
77 47 48 21 42 68 88 94 94 80 58 35 35 30 28 25 22 17 19 21 21 14 5 6 5 52 75 75 62 84 94 100 95 97 96 100 60 32 38 38 34 31 26 13
98 86 76 52 20 20 32 55 61 50 46 41 30 27 26 26 22 11 14 7 5 5 17 24 26 74 59 94 82 99 100 98 96 97 95 98 60 38 41 44 35 33 30 26
100 100 100 99 100 81 48 15 16 15 21 22 14 8 42 32 19 5 7 14 12 14 38 75 54 89 72 92 98 85 99 96 96 97 97 98 76 42 48 49 41 32 32 36
100 100 100 100 86 77 55 33 22 28 60 64 53 66 81 80 59 13 12 9 34 50 66 92 70 82 100 95 94 91 83 88 95 96 95 95 93 45 60 53 44 33 32 35
100 99 100 76 97 85 70 41 77 100 100 98 87 95 100 100 63 37 14 30 51 57 81 100 82 82 99 100 98 93 98 89 90 87 89 100 97 94 69 53 48 43 40 36
86 75 71 95 100 97 100 100 100 100 93 66 67 94 88 87 100 53 76 75 70 66 86 100 97 84 97 100 97 90 98 97 98 81 94 93 96 94 90 88 73 61 64 66
100 94 91 87 89 100 100 100 96 91 99 94 80 73 74 75 85 98 96 97 100 99 100 100 99 100 86 99 90 97 98 98 93 98 75 97 97 96 97 98 98 93 87 90
100 100 100 100 98 100 100 97 100 83 84 80 70 74 77 74 87 97 94 100 100 98 100 99 80 97 98 100 97 100 97 98 98 98 98 91 96 98 100 98 98 98 92 94
92 100 100 100 100 98 100 79 89 79 68 64 78 86 80 64 69 79 100 100 100 100 99 54 30 80 98 99 99 100 100 85 98 98 98 98 97 96 98 100 99 98 98 97
90 99 100 100 90 100 96 100 96 81 64 82 91 100 100 93 65 74 99 91 98 83 48 67 47 19 69 97 97 98 98 99 95 99 99 98 97 97 99 99 99 98 99 99
98 90 98 98 100 99 94 93 91 97 86 83 84 97 100 98 93 70 73 82 86 58 49 37 40 21 23 75 97 92 98 98 97 98 99 98 99 99 98 98 97 94 94 95
81 78 65 61 71 79 81 80 78 82 89 89 88 99 100 80 96 95 94 84 60 41 33 32 28 29 26 9 32 56 66 90 95 99 98 99 98 100 99 98 99 99 87 100
65 74 71 69 70 81 88 91 92 90 94 97 97 98 99 85 78 90 80 73 72 54 32 24 22 24 21 25 10 9 14 20 23 65 87 84 98 94 95 76 48 57 31 72
80 74 70 73 78 89 98 97 99 100 100 98 95 100 100 95 79 62 54 73 80 63 70 70 42 24 16 16 9 7 8 10 13 13 16 29 25 28 35 35 93 93 52 49
74 67 64 62 57 51 46 43 40 56 71 94 52 74 100 87 78 67 49 47 100 96 86 78 77 56 32 29 24 19 23 30 31 28 29 38 42 44 47 59 64 70 68 67
67 58 49 43 37 33 29 26 26 27 29 29 58 37 40 66 63 64 59 51 40 66 91 100 97 98 94 98 98 78 54 60 75 74 79 74 61 52 52 60 69 72 85 100
28 24 21 20 17 17 20 20 21 19 17 16 17 20 23 24 31 44 54 56 54 50 35 36 69 78 92 97 100 100 100 100 100 100 100 96 97 100 100 95 95 97 100 100
23 24 26 28 26 26 33 47 56 57 45 27 20 16 16 18 20 21 22 29 42 52 52 49 38 36 39 92 100 97 100 100 100 100 100 100 100 100 100 100 100 100 100 100
32 34 40 44 42 36 35 36 47 59 66 64 58 53 43 29 24 24 21 18 17 19 28 44 50 48 42 34 32 48 78 92 92 95 96 97 98 100 100 100 100 100 100 100
25 25 29 30 33 37 38 39 37 42 59 65 69 91 91 80 69 58 44 34 24 18 16 16 19 35 50 50 48 41 34 32 31 31 45 74 97 99 100 100 100 100 100 100
30 32 36 42 48 53 58 60 50 36 36 46 54 56 71 73 79 74 66 55 47 42 37 29 24 18 17 29 57 61 63 54 48 46 42 41 42 66 100 100 100 100 98 96
62 82 85 82 78 78 73 69 72 78 79 42 37 46 43 40 47 55 70 79 69 54 48 51 52 46 35 34 26 36 78 87 84 82 74 62 64 71 86 93 93 93 89 77
88 90 85 86 71 59 55 52 63 74 87 91 72 32 39 37 36 35 35 43 79 75 71 70 66 67 74 60 50 50 41 38 85 100 100 93 76 69 68 66 68 69 71 75
90 93 99 95 88 86 72 53 51 63 80 86 84 62 26 28 31 31 32 32 41 79 84 96 87 81 59 59 64 74 90 98 98 97 96 99 100 100 100 100 100 99 96 95
Wind_Speed
27 34 34 28 38 37 37 38 39 38 42 41 38 45 48 47 49 51 50 51 50 43 43 44 47 47 44 47 41 44 51 51 46 40 39 35 33 32 27 22 21 23 25 21
23 28 35 45 36 30 37 38 37 37 41 36 43 44 49 50 49 47 50 51 49 45 42 44 43 45 37 37 39 46 52 51 46 42 40 36 35 33 27 23 22 20 21 21
17 21 31 40 43 34 38 42 39 38 36 41 41 42 45 47 48 48 48 47 48 42 41 42 42 37 33 35 38 50 54 52 47 44 41 37 37 34 28 25 24 19 15 18
10 11 18 20 36 39 42 35 33 35 36 43 45 45 47 48 46 46 46 47 46 41 40 40 41 42 34 33 39 50 54 54 49 46 43 38 38 35 31 27 25 21 16 14
2 4 4 5 14 27 40 42 42 42 40 41 43 46 48 52 44 35 38 37 40 42 37 37 40 34 35 34 39 54 58 56 50 46 45 39 39 37 34 30 27 22 19 16
12 12 10 1 6 10 12 19 34 43 48 51 47 32 33 32 32 31 30 32 34 35 32 34 38 31 34 39 50 45 55 55 51 44 44 39 41 40 36 33 29 25 21 19
7 8 8 7 8 12 10 9 13 14 13 15 16 19 20 20 21 24 28 30 27 33 27 27 30 34 42 45 49 53 51 50 41 43 44 41 39 42 41 37 32 30 25 24
6 5 7 8 3 4 4 4 5 2 6 4 9 14 8 14 14 20 25 27 21 31 27 24 27 35 36 42 51 43 55 57 46 41 44 47 42 42 43 42 36 32 29 28
12 9 7 5 6 7 3 4 5 6 3 1 6 9 10 12 13 19 24 23 22 26 32 24 29 33 39 47 41 50 41 47 45 46 43 43 39 39 43 47 41 37 34 32
8 6 7 7 4 7 9 7 6 6 5 5 6 10 11 11 14 19 21 21 18 23 16 18 20 26 37 39 51 41 35 56 56 47 50 48 45 40 38 33 32 33 32 33
19 17 5 5 4 3 9 7 3 2 3 7 12 16 17 15 12 14 20 21 22 19 11 9 10 13 28 41 43 42 44 36 50 47 39 46 44 41 30 31 32 32 34 36
12 12 16 13 10 8 3 1 3 4 7 9 10 17 18 20 17 15 18 15 18 18 11 11 10 10 11 18 43 44 52 46 36 39 38 35 33 44 40 38 35 41 40 39
7 9 6 4 3 7 7 7 5 9 11 13 16 20 18 11 13 18 16 13 16 14 14 15 12 12 11 11 12 29 35 38 33 29 37 38 38 39 42 39 40 38 31 38
7 3 1 0 5 8 10 12 13 14 13 15 19 21 18 12 10 13 18 17 18 18 20 15 15 12 15 14 12 10 22 29 35 36 23 31 33 31 35 32 36 25 22 31
6 8 9 8 9 13 16 19 21 21 24 25 19 18 13 12 10 11 11 15 18 20 19 20 16 17 15 14 17 16 15 17 17 18 20 26 24 29 18 24 27 25 30 32
8 9 10 11 12 13 15 18 19 21 20 19 18 15 12 11 9 9 13 16 18 18 20 21 21 19 16 19 18 19 20 21 21 20 21 25 29 29 33 33 39 41 38 44
10 10 11 11 11 13 13 13 14 13 12 14 13 10 10 10 9 9 7 8 14 16 16 16 21 22 20 20 21 23 24 24 26 27 29 31 32 34 36 36 39 44 41 40
9 10 11 11 12 12 13 12 12 12 12 11 11 12 8 8 9 9 9 8 7 12 14 14 14 20 21 23 24 25 27 27 27 28 29 32 33 34 35 36 36 38 37 35
10 11 13 14 15 16 17 17 16 15 14 14 13 13 11 10 10 11 10 9 6 5 9 14 13 11 15 21 21 21 26 28 27 27 27 29 32 33 34 36 37 36 35 37
13 15 17 19 20 21 20 20 20 20 19 18 17 16 16 15 14 13 14 14 13 12 10 10 11 14 17 17 20 25 27 27 27 28 27 29 31 32 33 36 37 38 40 43
17 19 21 22 22 22 22 21 21 21 20 19 19 20 20 19 19 19 18 18 18 19 18 18 17 16 15 18 16 17 18 19 23 26 28 29 30 33 34 36 37 38 37 37
17 18 20 21 22 22 23 24 25 24 21 20 19 19 19 21 21 21 21 22 23 23 23 23 24 24 23 22 21 21 23 24 24 24 24 26 28 30 31 32 33 33 34 35
23 25 25 25 27 26 27 27 27 27 26 24 22 20 19 19 19 20 22 22 23 24 27 28 28 29 29 30 30 30 29 28 27 27 28 31 32 31 31 32 32 33 35 37
28 28 30 32 33 34 34 33 33 32 32 30 28 24 22 20 19 18 18 19 22 23 23 25 28 32 34 34 35 35 35 35 35 34 33 32 33 34 36 38 39 40 42 42
32 34 35 36 37 36 33 33 34 37 39 38 35 31 27 24 21 20 18 19 20 21 23 24 24 25 27 29 33 37 39 40 40 39 39 39 40 39 39 40 41 43 44 44
34 36 37 31 25 25 27 35 35 34 35 38 41 37 33 30 26 24 23 22 22 22 23 24 25 26 25 25 29 31 33 36 40 39 40 41 41 42 42 42 42 42 43 44
35 32 27 25 24 24 25 30 29 27 19 23 32 37 34 32 31 30 29 27 26 25 25 25 25 25 25 23 24 27 29 30 32 35 37 37 38 39 40 40 40 41 42 42
Wind_Direction
244 225 227 228 233 241 246 242 253 253 251 258 265 265 270 273 272 273 274 272 271 264 260 260 258 258 258 261 255 223 223 225 226 223 225 230 232 238 239 249 254 248 244 249
263 243 230 223 227 236 241 246 245 253 260 263 262 266 269 271 272 273 275 274 274 269 264 260 256 256 262 252 234 219 213 223 221 218 223 229 231 237 239 246 250 249 251 244
273 257 235 234 227 232 233 235 242 244 253 255 263 269 268 270 273 271 270 271 268 267 266 261 255 254 245 236 228 215 211 219 221 220 222 229 231 236 238 246 254 258 249 245
287 276 263 251 235 236 240 240 246 247 253 260 264 266 269 273 272 273 269 267 264 262 261 258 254 239 234 236 228 217 220 216 221 224 223 229 231 234 237 243 249 255 263 244
315 326 335 285 246 245 246 247 252 257 260 261 265 270 271 274 274 259 253 253 252 250 252 246 243 242 236 229 226 215 214 216 221 225 226 230 228 231 236 241 247 249 254 262
335 352 338 219 201 227 247 249 252 257 260 266 271 267 261 265 263 251 239 237 238 239 238 236 242 238 236 216 220 219 216 221 224 229 231 238 223 230 234 240 245 249 252 255
8 321 320 280 282 289 263 201 211 221 262 258 244 247 253 259 260 253 242 232 222 228 239 238 235 233 211 226 215 206 218 226 226 226 232 242 228 229 236 238 242 247 251 256
5 333 338 324 135 84 129 164 188 320 114 287 237 259 270 250 260 244 233 225 219 229 233 233 225 228 204 213 220 212 221 228 225 232 231 235 249 232 232 239 241 245 251 257
51 64 56 53 88 106 125 228 128 126 181 135 304 301 302 269 275 241 234 223 218 238 243 233 221 228 218 209 202 214 213 223 228 232 234 237 233 239 238 235 235 243 249 255
91 60 57 59 50 91 41 112 146 146 186 238 274 280 283 288 270 238 232 224 209 240 219 211 218 217 221 203 216 210 220 223 227 227 236 231 232 239 240 250 236 238 242 250
56 109 98 85 122 13 24 93 101 78 292 290 296 290 281 266 263 246 237 229 214 209 235 213 215 221 213 207 219 222 225 200 210 204 211 226 235 244 240 236 228 238 245 249
80 70 99 106 168 230 196 201 301 291 326 330 309 329 309 284 258 256 256 225 216 225 230 221 231 238 230 203 193 197 205 215 203 206 209 206 220 231 246 226 244 241 236 259
119 122 132 156 173 179 251 282 315 337 295 304 310 324 332 302 271 254 256 244 228 239 247 234 239 222 235 247 206 189 187 182 192 201 198 225 221 228 228 223 236 223 236 248
217 191 221 251 219 252 269 275 278 283 287 303 301 309 320 306 288 266 256 245 239 245 251 247 237 223 219 229 235 250 202 204 196 183 185 199 193 219 211 223 232 241 245 241
258 272 277 279 268 271 275 278 279 282 285 296 295 301 303 319 293 267 262 255 245 242 246 251 245 236 231 228 222 227 235 243 232 226 212 214 202 222 224 238 245 228 238 236
292 300 298 289 282 280 281 282 286 287 287 290 294 296 286 296 311 278 264 262 258 249 240 243 247 241 240 236 226 224 228 227 226 236 240 236 240 236 238 243 237 244 242 238
288 295 297 293 289 291 295 297 299 300 294 294 305 296 278 292 300 310 293 269 248 240 235 236 240 243 246 229 226 224 229 230 231 229 228 232 235 235 234 235 234 244 248 250
291 293 295 298 300 300 298 297 299 303 304 290 297 300 297 290 285 288 289 290 270 233 235 238 229 234 234 229 228 227 228 229 231 235 238 241 242 244 244 245 246 248 251 256
292 293 295 295 296 295 296 298 297 294 290 289 285 287 285 278 270 266 266 269 276 268 264 244 232 229 228 221 226 232 233 231 231 235 238 242 245 248 249 248 250 252 255 256
297 296 297 298 298 297 296 295 294 293 289 281 278 274 272 271 265 259 258 257 253 252 251 255 256 251 244 235 227 225 224 229 233 233 240 244 247 250 251 250 250 251 255 259
294 295 293 293 292 291 291 291 290 292 292 285 276 271 268 263 261 260 258 256 252 250 247 246 247 250 254 243 237 232 233 237 240 241 242 244 247 247 250 251 252 253 252 251
295 300 305 308 303 291 292 288 284 280 283 285 280 275 271 263 256 254 253 254 253 252 249 248 247 246 246 248 248 246 245 244 246 245 245 247 248 248 248 249 250 252 255 258
297 295 295 296 297 294 291 288 283 277 274 275 273 270 268 264 262 260 259 257 254 253 252 250 248 246 246 246 247 248 248 247 248 250 251 250 250 252 253 254 256 259 262 264
296 296 297 298 298 296 291 286 278 270 267 265 266 266 265 266 262 261 265 267 265 265 262 261 259 255 250 248 247 247 250 251 252 253 253 253 253 251 252 255 258 261 263 265
302 303 303 301 298 294 291 289 286 275 262 254 252 252 257 261 262 263 269 270 273 269 265 266 268 266 265 265 261 256 253 252 253 254 255 255 255 254 255 256 259 263 268 271
304 306 303 298 299 301 305 307 305 293 274 254 242 240 244 252 258 263 270 275 275 273 271 268 268 268 266 270 272 270 266 262 259 259 260 259 259 261 263 266 268 271 273 275
306 304 298 298 302 310 313 322 323 325 298 251 237 233 236 242 250 257 264 269 274 274 270 273 268 259 260 269 274 271 268 267 264 261 261 264 265 265 266 267 269 271 274 276